Brownwood, TX

1:18 AM CDT on May 26, 2017 (GMT -0500)
Brownwood Regional

Weather History for KBWD - May, 2014

Change the Weather History Date:

Monday, May 5, 2014

  Actual Average (KABI) Record (KABI)
Temperature  
Mean Temperature 78 °F -  
Max Temperature 96 °F 82 °F 104 °F (2014)
Min Temperature 59 °F 56 °F 41 °F (1979)
Cooling Degree Days 12    
Growing Degree Days 28 (Base 50)    
Moisture  
Dew Point 48 °F    
Average Humidity 37    
Maximum Humidity 67    
Minimum Humidity 17    
Precipitation  
Precipitation 0.00 in - - ()
Sea Level Pressure  
Sea Level Pressure 29.87 in    
Wind  
Wind Speed 10 mph (SSE)    
Max Wind Speed 17 mph    
Max Gust Speed 28 mph    
Visibility 10 miles    
Events      
Averages and records for this station are not official NWS values.
T = Trace of Precipitation, MM = Missing Value Source: NWS Daily Summary

Daily Weather History Graph

Daily Weather History Graph

Search for Another Location

Airport or City:

Trip Planner

Search our weather history database for the weather conditions in past years. The results will help you decide how hot, cold, wet, or windy it might be!

Date:

Astronomy

May. 05, 2014 Rise Set
Actual Time 6:46 AM CDT 8:18 PM CDT
Civil Twilight 6:20 AM CDT 8:45 PM CDT
Nautical Twilight 5:49 AM CDT 9:16 PM CDT
Astronomical Twilight 5:16 AM CDT 9:49 PM CDT
Moon 12:06 PM CDT (5/5) 1:04 AM CDT (5/5)
Length of Visible Light 14h 24m
Length of Day
13h 32m
Waxing Crescent, 37% of the Moon is Illuminated
May 5
Waxing Crescent
May 6
First Quarter
May 14
Full
May 21
Last Quarter
May 28
New

Hourly Weather History & Observations

Time (CDT) Temp. Heat Index Dew Point Humidity Pressure Visibility Wind Dir Wind Speed Gust Speed Precip Events Conditions
12:15 AM 73.4 °F - 37.4 °F 27% 29.96 in 10.0 mi SSE 9.2 mph - N/A   Partly Cloudy
12:35 AM 71.6 °F - 37.4 °F 29% 29.96 in 10.0 mi SSE 10.4 mph - N/A   Partly Cloudy
12:55 AM 71.6 °F - 37.4 °F 29% 29.96 in 10.0 mi South 8.1 mph - N/A   Partly Cloudy
1:15 AM 69.8 °F - 37.4 °F 31% 29.96 in 10.0 mi South 8.1 mph - N/A   Partly Cloudy
1:35 AM 68.0 °F - 37.4 °F 33% 29.96 in 10.0 mi South 8.1 mph - N/A   Partly Cloudy
1:55 AM 68.0 °F - 39.2 °F 35% 29.95 in 10.0 mi SSE 8.1 mph - N/A   Mostly Cloudy
2:15 AM 68.0 °F - 39.2 °F 35% 29.95 in 10.0 mi SSE 8.1 mph - N/A   Mostly Cloudy
2:35 AM 66.2 °F - 39.2 °F 37% 29.94 in 10.0 mi SSE 8.1 mph - N/A   Mostly Cloudy
2:55 AM 66.2 °F - 41.0 °F 40% 29.94 in 10.0 mi SSE 6.9 mph - N/A   Mostly Cloudy
3:15 AM 64.4 °F - 41.0 °F 42% 29.93 in 10.0 mi SE 6.9 mph - N/A   Mostly Cloudy
3:35 AM 64.4 °F - 41.0 °F 42% 29.93 in 10.0 mi SSE 4.6 mph - N/A   Mostly Cloudy
3:55 AM 64.4 °F - 42.8 °F 45% 29.94 in 10.0 mi SSE 8.1 mph - N/A   Scattered Clouds
4:15 AM 64.4 °F - 44.6 °F 49% 29.93 in 10.0 mi SSE 6.9 mph - N/A   Clear
4:35 AM 62.6 °F - 44.6 °F 52% 29.93 in 10.0 mi SSE 6.9 mph - N/A   Clear
4:55 AM 62.6 °F - 44.6 °F 52% 29.93 in 10.0 mi SSE 6.9 mph - N/A   Clear
5:15 AM 62.6 °F - 46.4 °F 55% 29.93 in 10.0 mi SSE 5.8 mph - N/A   Clear
5:35 AM 62.6 °F - 46.4 °F 55% 29.93 in 10.0 mi SSE 6.9 mph - N/A   Partly Cloudy
5:55 AM 60.8 °F - 48.2 °F 63% 29.93 in 10.0 mi SSE 6.9 mph - N/A   Clear
6:15 AM 59.0 °F - 48.2 °F 67% 29.93 in 10.0 mi SE 6.9 mph - N/A   Clear
6:35 AM 59.0 °F - 48.2 °F 67% 29.94 in 10.0 mi SE 6.9 mph - N/A   Clear
6:55 AM 59.0 °F - 48.2 °F 67% 29.95 in 10.0 mi SSE 5.8 mph - N/A   Clear
7:15 AM 59.0 °F - 48.2 °F 67% 29.95 in 10.0 mi SSE 5.8 mph - N/A   Clear
7:35 AM 62.6 °F - 50.0 °F 63% 29.95 in 10.0 mi South 6.9 mph - N/A   Clear
7:55 AM 64.4 °F - 51.8 °F 64% 29.96 in 10.0 mi South 8.1 mph - N/A   Clear
8:15 AM 64.4 °F - 51.8 °F 64% 29.95 in 10.0 mi SSE 5.8 mph - N/A   Clear
8:35 AM 66.2 °F - 53.6 °F 64% 29.96 in 10.0 mi South 9.2 mph - N/A   Clear
8:55 AM 68.0 °F - 55.4 °F 64% 29.96 in 10.0 mi South 8.1 mph - N/A   Clear
9:15 AM 71.6 °F - 55.4 °F 57% 29.96 in 10.0 mi South 9.2 mph - N/A   Clear
9:35 AM 73.4 °F - 55.4 °F 53% 29.95 in 10.0 mi South 10.4 mph - N/A   Clear
9:55 AM 75.2 °F - 57.2 °F 53% 29.95 in 10.0 mi SSW 13.8 mph - N/A   Clear
10:15 AM 77.0 °F - 57.2 °F 50% 29.95 in 10.0 mi South 11.5 mph 17.3 mph N/A   Clear
10:35 AM 78.8 °F - 55.4 °F 44% 29.94 in 10.0 mi SSW 13.8 mph 18.4 mph N/A   Clear
10:55 AM 80.6 °F 80.5 °F 55.4 °F 42% 29.93 in 10.0 mi SSW 15.0 mph 21.9 mph N/A   Clear
11:15 AM 82.4 °F 81.7 °F 55.4 °F 39% 29.93 in 10.0 mi SSW 15.0 mph 20.7 mph N/A   Clear
11:35 AM 84.2 °F 82.8 °F 53.6 °F 35% 29.92 in 10.0 mi SSW 13.8 mph - N/A   Clear
11:55 AM 86.0 °F 84.2 °F 53.6 °F 33% 29.91 in 10.0 mi South 15.0 mph 20.7 mph N/A   Clear
12:15 PM 86.0 °F - 50.0 °F 29% 29.90 in 10.0 mi South 12.7 mph 21.9 mph N/A   Clear
12:35 PM 89.6 °F - 51.8 °F 27% 29.89 in 10.0 mi South 15.0 mph 24.2 mph N/A   Clear
12:55 PM 89.6 °F - 51.8 °F 27% 29.89 in 10.0 mi South 13.8 mph 23.0 mph N/A   Clear
1:15 PM 89.6 °F - 50.0 °F 26% 29.88 in 10.0 mi SSW 13.8 mph 21.9 mph N/A   Clear
1:35 PM 91.4 °F - 48.2 °F 23% 29.87 in 10.0 mi South 12.7 mph 21.9 mph N/A   Clear
1:55 PM 91.4 °F - 48.2 °F 23% 29.86 in 10.0 mi South 17.3 mph 21.9 mph N/A   Clear
2:15 PM 91.4 °F - 48.2 °F 23% 29.85 in 10.0 mi South 16.1 mph 21.9 mph N/A   Clear
2:35 PM 93.2 °F - 48.2 °F 21% 29.84 in 10.0 mi South 15.0 mph 20.7 mph N/A   Clear
2:55 PM 93.2 °F - 50.0 °F 23% 29.83 in 10.0 mi South 12.7 mph 19.6 mph N/A   Clear
3:15 PM 95.0 °F - 50.0 °F 22% 29.82 in 10.0 mi South 12.7 mph 18.4 mph N/A   Clear
3:35 PM 95.0 °F - 48.2 °F 20% 29.80 in 10.0 mi SSE 10.4 mph 19.6 mph N/A   Clear
3:55 PM 95.0 °F - 48.2 °F 20% 29.79 in 10.0 mi South 13.8 mph 20.7 mph N/A   Clear
4:15 PM 95.0 °F - 46.4 °F 19% 29.78 in 10.0 mi South 15.0 mph 20.7 mph N/A   Clear
4:35 PM 95.0 °F - 48.2 °F 20% 29.76 in 10.0 mi SSW 13.8 mph - N/A   Clear
4:55 PM 96.8 °F - 46.4 °F 18% 29.75 in 10.0 mi South 17.3 mph 21.9 mph N/A   Clear
5:15 PM 96.8 °F - 46.4 °F 18% 29.75 in 10.0 mi SSE 12.7 mph 21.9 mph N/A   Clear
5:35 PM 96.8 °F - 46.4 °F 18% 29.74 in 10.0 mi South 17.3 mph 26.5 mph N/A   Clear
5:55 PM 95.0 °F - 44.6 °F 18% 29.73 in 10.0 mi South 17.3 mph 24.2 mph N/A   Clear
6:15 PM 95.0 °F - 44.6 °F 18% 29.73 in 10.0 mi South 16.1 mph 24.2 mph N/A   Clear
6:35 PM 95.0 °F - 44.6 °F 18% 29.72 in 10.0 mi SSE 15.0 mph 27.6 mph N/A   Clear
6:55 PM 93.2 °F - 42.8 °F 17% 29.72 in 10.0 mi SSE 16.1 mph 25.3 mph N/A   Clear
7:15 PM 93.2 °F - 44.6 °F 19% 29.72 in 10.0 mi SSE 13.8 mph 27.6 mph N/A   Clear
7:35 PM 91.4 °F - 46.4 °F 21% 29.73 in 10.0 mi SSE 15.0 mph 26.5 mph N/A   Clear
7:55 PM 91.4 °F - 46.4 °F 21% 29.73 in 10.0 mi SSE 16.1 mph 23.0 mph N/A   Clear
8:15 PM 89.6 °F - 50.0 °F 26% 29.74 in 10.0 mi SE 17.3 mph 23.0 mph N/A   Clear
8:35 PM 86.0 °F 84.2 °F 53.6 °F 33% 29.74 in 10.0 mi SE 17.3 mph 21.9 mph N/A   Clear
8:55 PM 84.2 °F 82.8 °F 53.6 °F 35% 29.75 in 10.0 mi SE 17.3 mph 20.7 mph N/A   Clear
9:15 PM 84.2 °F 82.8 °F 53.6 °F 35% 29.76 in 10.0 mi SE 16.1 mph 23.0 mph N/A   Partly Cloudy
9:35 PM 84.2 °F 82.8 °F 53.6 °F 35% 29.77 in 10.0 mi SSE 10.4 mph 19.6 mph N/A   Clear
9:55 PM 82.4 °F 81.4 °F 53.6 °F 37% 29.78 in 10.0 mi SSE 10.4 mph 17.3 mph N/A   Clear
10:15 PM 82.4 °F 81.4 °F 53.6 °F 37% 29.79 in 10.0 mi SSE 12.7 mph 17.3 mph N/A   Partly Cloudy
10:35 PM 82.4 °F 81.4 °F 53.6 °F 37% 29.80 in 10.0 mi SSE 12.7 mph 18.4 mph N/A   Clear
10:55 PM 80.6 °F 80.3 °F 53.6 °F 39% 29.80 in 10.0 mi South 12.7 mph 18.4 mph N/A   Partly Cloudy
11:15 PM 80.6 °F 80.3 °F 53.6 °F 39% 29.80 in 10.0 mi South 12.7 mph 19.6 mph N/A   Partly Cloudy
11:35 PM 80.6 °F 80.3 °F 53.6 °F 39% 29.81 in 10.0 mi South 12.7 mph 25.3 mph N/A   Clear
11:55 PM 80.6 °F 80.3 °F 53.6 °F 39% 29.81 in 10.0 mi South 13.8 mph 18.4 mph N/A   Partly Cloudy